loading
|
Showing default

SOYUZ MS-26, 61043

Orbit data source: Space-Track

SOYUZ MS-26, 61043 is a payload satellite owned by RKKE (CIS) in LEO that was launched on Wed, 11 Sep 2024 UTC via a SOYUZ-2-1A launch vehicle from the Tyuratam Missile And Space Complex (TTMTR). Payloads include a variety of satellites, spacecraft, and rockets equipped with specific instruments for various scientific and technological missions. These include communications satellites like Starlink; space stations such as the ISS; scientific satellites like the Hubble; Earth observation satellites from companies like Planet Labs, Umbra, and HawkEye 360; GPS; miniature CubeSats for education and research; and military/defense satellites.

Loading next visibility...
Next conjunction unknown
Loading greatness...
SOYUZ MS-26 details
Identifier
61043, 2024-162A
Orbit
LEO
Last TLE update19 hours ago
Origin
Flag of CISRKKE (CIS)
ManufacturerRKKE
MissionOperational spacecraft
Bus & Motor7K-S A48, SA
Mass7,152 kg wet, 2,900 kg dry
Launch date (UTC)
2024-09-11 (1 month ago)
Launch vehicle
SOYUZ-2-1A
Launch site
Tyuratam Missile And Space Complex (TTMTR)
Object type
Payload
Rocket body
Debris
Shape & HBRUnknown
Radar Cross SectionMedium (>0.1 m² and <1 m²)

Expand to show TLE details & history

TLE from 19 hours ago
0 SOYUZ MS-26
1 61043U 24162A   24287.85348720  .00026028  00000-0  46498-3 0  9991
2 61043  51.6377  87.6318 0009119  65.7982 294.3959 15.49812774476584
Epoch: 2024-10-13T20:29Z
Definitive object data (Epoch: 2024-10-13T20:29:01.294Z)
Latitude-0°
Longitude117.48739°
Altitude415.46 km
Speed7.665 km/s
True Right ascension05h 50m 31s
True Declination0° 00' 00"
Sunlit
Object was in full shadow at TLE epoch
Predictive object data (real-time)
Latitude39.17555°
Longitude-106.35453°
Altitude417.097 km
Speed7.668 km/s
Apparent Right ascension18h 20m 48s
Apparent Declination1° 55' 50"
Sunlit
Object is in daylight
Predictive observer data (real-time)
Local Sidereal Time10:10:01
Azimuth66.129° ENE
Elevation-23.105°
Doppler factor1
Orbital elements
Apogee423.979 km
Perigee411.584 km
Semi-major axis6,795.919 km
Eccentricity0.0009119
Inclination51.6377°
RAAN87.6318°
Arg. of periapsis65.7982°
True anomaly294.30069°
Mean anomaly294.3959°
Eccentric anomaly294.3483°
Mean motion3.8741 °/min
BSTAR0.00046498
Period92.92 mins
No data available
No data available
Other satellites on launch #162 in the year 2024 (2024-09-11 UTC)

SOYUZ MS-26 Visibility forecast

Observer location: 39.9160978°, -105.1181434

Span
Click to sort rows by Start time (UTC) header in descending order
Start Az.
Max El. time (UTC)
Max El. Az.
Max El.
End time (UTC)
End Az.
4 mins2024-10-14 20:12:48.575Z303.501° NW2024-10-14 20:13:48.575Z290.114° WNW43.103°2024-10-14 20:16:48.575Z131.157° SE
4 mins2024-10-15 12:54:48.575Z193.374° SSW2024-10-15 12:55:48.575Z158.347° S34.097°2024-10-15 12:58:48.575Z66.715° ENE